Starlink 35171

operational
NORAD ID: 65605 Int'l Des: 2025-207 Owner: SPXS Country: US Constellation: starlink
NOTLE

关于 Starlink 35171

正在加载描述...

实时位置

正在加载3D地球...

即将过境

高度历史

Altitude vs Time

uPlot chart will show altitude changes over time

两行轨道根数

1 65605U 25207P 25308.74119038 .00045415 00000-0 11620-2 0 9990
2 65605 97.6050 13.0703 0001829 75.0719 285.0728 15.39284200 9144
Epoch: Nov 4, 2025 • Age: 8 hours

当前状态

高度 457.7 km
速度 7.64 km/s
星下点 60.81°N, 131.09°E
发射日期 Sep 13, 2025
运行时间 0.1 years
类型 internet

技术详情

分类 Payload
质量 575.00 kg
干质量 530.00 kg
总质量 575.00 kg
长度 0.30 m
直径 4.10 m
跨度 29.00 m
形状 Box + pan
制造商 SPXS
平台类型 Starlink V2MO
阶段状态 In Orbit
所有者/国家 SPXS/US

大型星座

Loading constellations...